EW4819 Weather Reports


time (UTC)temp
F
wind
direction
speed
knots
gust
knots
rain 1hr
in
rain 24hr
in
rain mn
in
humidity
%
barometer
mb
20260506031525 51 21 1.7 5.2 0.00 0.00 0.00 80 1010.9
20260506031026 51 26 1.7 6.1 0.00 0.00 0.00 80 1010.9
20260506030504 51 31 2.6 6.1 0.00 0.00 0.00 80 1010.9
20260506030004 51 32 1.7 4.3 0.00 0.00 0.00 79 1010.9
20260506025523 51 35 1.7 4.3 0.00 0.00 0.00 79 1010.9
20260506025004 51 36 1.7 5.2 0.00 0.00 0.00 79 1010.9
20260506024523 51 35 1.7 5.2 0.00 0.00 0.00 79 1010.9
20260506024002 51 30 1.7 3.5 0.00 0.00 0.00 79 1011.0
20260506023502 51 30 1.7 5.2 0.00 0.00 0.00 79 1010.9
20260506023003 51 44 1.7 6.1 0.00 0.00 0.00 79 1011.1
20260506022502 51 43 1.7 7.0 0.00 0.00 0.00 79 1011.0
20260506022002 51 35 1.7 7.0 0.00 0.00 0.00 79 1011.0
20260506021502 52 33 1.7 5.2 0.00 0.00 0.00 79 1011.0
20260506021002 52 22 1.7 5.2 0.00 0.00 0.00 80 1010.9
20260506020502 52 24 1.7 5.2 0.00 0.00 0.00 80 1010.9
20260506020002 52 42 0.9 3.5 0.00 0.00 0.00 80 1011.0
20260506015502 52 53 0.9 3.5 0.00 0.00 0.00 80 1010.9
20260506015002 52 50 0.9 3.5 0.00 0.00 0.00 80 1010.9
20260506014525 52 37 0.9 3.5 0.00 0.00 0.00 80 1011.0
20260506014002 52 35 1.7 6.1 0.00 0.00 0.00 79 1011.0
20260506013504 52 41 1.7 6.1 0.00 0.00 0.00 79 1010.9
20260506013024 52 33 1.7 4.3 0.00 0.00 0.00 79 1010.9
20260506012503 52 30 1.7 4.3 0.00 0.00 0.00 79 1010.9
20260506012004 52 34 1.7 4.3 0.00 0.00 0.00 79 1010.9
20260506011525 53 37 0.9 3.5 0.00 0.00 0.00 78 1010.9
20260506011003 53 24 0.9 5.2 0.00 0.00 0.00 78 1010.9
20260506010502 53 16 0.9 5.2 0.00 0.00 0.00 78 1010.9
20260506010003 53 4 0.9 2.6 0.00 0.00 0.00 78 1010.9
20260506005502 53 10 0.9 2.6 0.00 0.00 0.00 78 1011.0
20260506005004 53 20 0.9 3.5 0.00 0.00 0.00 78 1011.0
20260506004524 53 27 1.7 4.3 0.00 0.00 0.00 78 1010.9
20260506004003 53 36 0.9 4.3 0.00 0.00 0.00 78 1010.9
20260506003503 53 44 0.9 2.6 0.00 0.00 0.00 78 1010.9
20260506003003 53 40 0.9 4.3 0.00 0.00 0.00 78 1011.0
20260506002502 53 39 0.9 4.3 0.00 0.00 0.00 77 1010.9
20260506002003 53 33 0.9 2.6 0.00 0.00 0.00 77 1010.9
20260506001504 53 355 0.0 1.7 0.00 0.00 0.00 77 1010.9
20260506001004 54 355 0.0 1.7 0.00 0.00 0.00 76 1010.9
20260506000504 54 341 0.0 1.7 0.00 0.00 0.00 76 1010.9
20260506000004 54 336 0.9 1.7 0.00 0.00 0.00 76 1010.9
20260505235525 54 346 0.0 1.7 0.00 0.00 0.00 76 1010.9
20260505235003 54 21 0.9 7.0 0.00 0.00 0.00 76 1010.8
20260505234503 54 32 1.7 7.0 0.00 0.00 0.00 76 1010.9
20260505234003 54 44 0.9 3.5 0.00 0.00 0.00 76 1010.8
20260505233524 54 38 0.9 3.5 0.00 0.00 0.00 76 1010.9
20260505233024 54 27 0.9 3.5 0.00 0.00 0.00 75 1010.9
20260505232503 54 26 0.9 3.5 0.00 0.00 0.00 75 1010.8
20260505232003 54 30 0.9 2.6 0.00 0.00 0.00 75 1010.9
20260505231503 54 20 0.0 2.6 0.00 0.00 0.00 75 1010.8
20260505231003 54 348 0.0 2.6 0.00 0.00 0.00 74 1010.8
20260505230504 54 348 0.9 3.5 0.00 0.00 0.00 74 1010.8
20260505230003 54 344 0.9 3.5 0.00 0.00 0.00 74 1010.8
20260505225503 54 343 0.9 3.5 0.00 0.00 0.00 74 1010.8
20260505225003 54 346 0.9 3.5 0.00 0.00 0.00 74 1010.8
20260505224503 54 336 0.9 3.5 0.00 0.00 0.00 73 1010.7
20260505224003 54 340 0.9 3.5 0.00 0.00 0.00 73 1010.7
20260505223503 54 347 0.9 2.6 0.00 0.00 0.00 73 1010.8
20260505223003 54 336 0.9 3.5 0.00 0.00 0.00 73 1010.8
20260505222503 55 342 0.9 4.3 0.00 0.00 0.00 73 1010.8
20260505222003 55 344 0.9 5.2 0.00 0.00 0.00 73 1010.8
20260505221503 55 342 0.9 5.2 0.00 0.00 0.00 73 1010.7
20260505221003 55 328 0.9 3.5 0.00 0.00 0.00 72 1010.7
20260505220524 55 319 0.9 3.5 0.00 0.00 0.00 72 1010.8
20260505220003 55 314 0.9 3.5 0.00 0.00 0.00 72 1010.8
20260505215524 55 316 0.9 3.5 0.00 0.00 0.00 72 1010.8
20260505215003 55 327 0.9 2.6 0.00 0.00 0.00 72 1010.8
20260505214503 55 327 0.9 3.5 0.00 0.00 0.00 72 1010.8
20260505214003 55 322 0.9 3.5 0.00 0.00 0.00 72 1010.8
20260505213504 55 319 0.9 3.5 0.00 0.00 0.00 72 1010.8
20260505213004 55 317 0.9 3.5 0.00 0.00 0.00 71 1010.8
20260505212504 55 324 0.9 3.5 0.00 0.00 0.00 71 1010.8
20260505212003 55 330 0.9 3.5 0.00 0.00 0.00 71 1010.8
20260505211503 56 322 0.9 2.6 0.00 0.00 0.00 71 1010.7
20260505211003 56 320 0.0 2.6 0.00 0.00 0.00 71 1010.7
20260505210503 56 325 0.0 2.6 0.00 0.00 0.00 71 1010.7
20260505210004 56 328 0.0 2.6 0.00 0.00 0.00 71 1010.6
20260505205504 56 317 0.9 2.6 0.00 0.00 0.00 71 1010.7
20260505205006 56 299 0.9 2.6 0.00 0.00 0.00 71 1010.6
20260505204525 56 301 0.9 2.6 0.00 0.00 0.00 71 1010.6
20260505204004 56 322 0.9 4.3 0.00 0.00 0.00 71 1010.6
20260505203503 56 326 0.9 4.3 0.00 0.00 0.00 70 1010.7
20260505203024 56 322 0.9 2.6 0.00 0.00 0.00 71 1010.6
20260505202503 56 327 0.9 2.6 0.00 0.00 0.00 70 1010.6
20260505202003 56 341 0.0 1.7 0.00 0.00 0.00 71 1010.6
20260505201503 56 8 0.0 0.9 0.00 0.00 0.00 70 1010.6
20260505201003 57 343 0.0 1.7 0.00 0.00 0.00 70 1010.6
20260505200524 57 337 0.9 2.6 0.00 0.00 0.00 69 1010.6
20260505200003 57 335 0.9 3.5 0.00 0.00 0.00 69 1010.5
20260505195503 57 333 0.9 3.5 0.00 0.00 0.00 69 1010.4
20260505195003 57 332 0.9 3.5 0.00 0.00 0.00 69 1010.4
20260505194503 57 342 0.9 3.5 0.00 0.00 0.00 69 1010.3
20260505194003 57 349 0.0 2.6 0.00 0.00 0.00 69 1010.3
20260505193503 57 341 0.9 4.3 0.00 0.00 0.00 68 1010.3
20260505193003 57 343 0.9 4.3 0.00 0.00 0.00 69 1010.3
20260505192503 57 5 0.9 3.5 0.00 0.00 0.00 68 1010.2
20260505192002 57 2 0.9 6.1 0.00 0.00 0.00 68 1010.2
20260505191501 57 352 1.7 6.1 0.00 0.00 0.00 68 1010.2
20260505191001 58 346 0.9 4.3 0.00 0.00 0.00 68 1010.1
20260505190501 58 347 0.9 5.2 0.00 0.00 0.00 67 1010.1
20260505190001 58 340 1.7 5.2 0.00 0.00 0.00 67 1010.1
20260505185501 58 347 1.7 6.1 0.00 0.00 0.00 67 1010.1
20260505185001 58 357 1.7 6.1 0.00 0.00 0.00 67 1010.1
20260505184501 58 355 0.9 2.6 0.00 0.00 0.00 68 1010.1
20260505184001 58 20 0.9 5.2 0.00 0.00 0.00 68 1010.0
20260505183501 58 358 1.7 5.2 0.00 0.00 0.00 68 1009.9
20260505183002 58 340 1.7 5.2 0.00 0.00 0.00 68 1010.0
20260505182502 58 333 0.9 3.5 0.00 0.00 0.00 68 1009.9
20260505182001 58 340 1.7 3.5 0.00 0.00 0.00 67 1009.9
20260505181501 58 358 1.7 4.3 0.00 0.00 0.00 67 1009.9
20260505181022 59 352 1.7 4.3 0.00 0.00 0.00 67 1009.9
20260505180502 59 355 0.9 4.3 0.00 0.00 0.00 68 1009.9
20260505180001 59 15 0.9 2.6 0.00 0.00 0.00 67 1010.0
20260505175502 59 3 0.9 2.6 0.00 0.00 0.00 67 1009.9
20260505175002 59 358 0.9 2.6 0.00 0.00 0.00 68 1010.0
20260505174502 59 8 0.9 3.5 0.00 0.00 0.00 68 1009.9
20260505174023 59 16 1.7 3.5 0.00 0.00 0.00 67 1009.9
20260505173502 60 33 0.9 3.5 0.00 0.00 0.00 67 1010.0
20260505173001 60 64 0.9 2.6 0.00 0.00 0.00 66 1009.9
20260505172522 60 52 0.9 4.3 0.00 0.00 0.00 66 1010.0
20260505172001 60 37 0.9 4.3 0.00 0.00 0.00 66 1010.0
20260505171522 60 356 0.9 3.5 0.00 0.00 0.00 66 1010.0
20260505171001 60 1 1.7 6.1 0.00 0.00 0.00 65 1010.0
20260505170522 60 11 1.7 6.1 0.00 0.00 0.00 66 1010.1
20260505170001 60 3 1.7 4.3 0.00 0.00 0.00 67 1010.1
20260505165501 60 348 0.9 4.3 0.00 0.00 0.00 66 1010.1
20260505165003 60 12 1.7 4.3 0.00 0.00 0.00 66 1010.1
20260505164501 60 18 1.7 4.3 0.00 0.00 0.00 66 1010.1
20260505164001 60 10 0.9 3.5 0.00 0.00 0.00 66 1010.1
20260505163501 60 12 1.7 7.0 0.00 0.00 0.00 66 1010.1
20260505163022 60 4 0.9 7.0 0.00 0.00 0.00 65 1010.1
20260505162501 60 357 0.0 2.6 0.00 0.00 0.00 65 1010.1
20260505162022 61 36 0.9 4.3 0.00 0.00 0.00 66 1010.1
20260505161522 60 31 1.7 5.2 0.00 0.00 0.00 65 1010.1
20260505161001 60 13 1.7 5.2 0.00 0.00 0.00 66 1010.1
20260505160522 60 360 1.7 4.3 0.00 0.00 0.00 66 1010.1
20260505153022 61 20 2.6 7.8 0.00 0.00 0.00 64 1010.2
20260505152501 61 12 2.6 7.8 0.00 0.00 0.00 63 1010.2
20260505152001 61 32 1.7 7.8 0.00 0.00 0.00 63 1010.2
20260505151501 62 24 2.6 7.8 0.00 0.00 0.00 61 1010.2
20260505151022 62 14 2.6 7.8 0.00 0.00 0.00 61 1010.2
20260505150522 62 6 2.6 7.0 0.00 0.00 0.00 61 1010.2
20260505140501 61 27 1.7 7.0 0.00 0.00 0.00 65 1010.4
20260505125024 61 34 3.5 8.7 0.00 0.00 0.00 60 1010.6
20260505124522 61 20 2.6 8.7 0.00 0.00 0.00 62 1010.7
20260505124001 62 15 3.5 8.7 0.00 0.00 0.00 61 1010.7
20260505123501 62 14 2.6 7.0 0.00 0.00 0.00 61 1010.7
20260505123001 63 3 3.5 8.7 0.00 0.00 0.00 60 1010.7
20260505122524 63 355 2.6 8.7 0.00 0.00 0.00 60 1010.6
20260505122024 64 25 2.6 7.0 0.00 0.00 0.00 59 1010.5
20260505121502 63 45 3.5 7.8 0.00 0.00 0.00 59 1010.6
20260505121003 64 36 3.5 10.4 0.00 0.00 0.00 59 1010.7
20260505120502 63 27 3.5 10.4 0.00 0.00 0.00 61 1010.7
20260505120001 62 25 3.5 8.7 0.00 0.00 0.00 64 1010.7
20260505115524 61 25 3.5 9.6 0.00 0.00 0.00 63 1010.8
20260505115002 62 27 3.5 9.6 0.00 0.00 0.00 63 1010.9
20260505114502 62 17 3.5 7.8 0.00 0.00 0.00 63 1010.8
20260505114002 62 8 3.5 10.4 0.00 0.00 0.00 63 1010.8
20260505113523 62 7 3.5 10.4 0.00 0.00 0.00 63 1010.8
20260505113002 60 11 2.6 9.6 0.00 0.00 0.00 67 1010.9
20260505112524 61 10 3.5 8.7 0.00 0.00 0.00 64 1011.0
20260505112003 62 14 4.3 10.4 0.00 0.00 0.00 65 1011.0
20260505111502 62 24 4.3 10.4 0.00 0.00 0.00 64 1011.0
20260505111002 61 18 3.5 9.6 0.00 0.00 0.00 64 1011.1
20260505110501 60 7 3.5 9.6 0.00 0.00 0.00 70 1011.1
20260505102002 59 354 3.5 7.8 0.00 0.00 0.00 73 1011.3
20260505101502 58 5 2.6 7.0 0.00 0.00 0.00 75 1011.3
20260505101002 58 346 2.6 7.8 0.00 0.00 0.00 76 1011.3
20260505100502 58 338 2.6 7.8 0.00 0.00 0.00 74 1011.3
20260505100002 59 349 2.6 8.7 0.00 0.00 0.00 73 1011.3
20260505095502 59 355 3.5 12.2 0.00 0.00 0.00 74 1011.3
20260505095001 59 14 3.5 12.2 0.00 0.00 0.00 73 1011.4
20260505094502 59 39 2.6 8.7 0.00 0.00 0.00 75 1011.5
20260505094023 58 45 3.5 8.7 0.00 0.00 0.00 76 1011.5
20260505093502 57 41 3.5 8.7 0.00 0.00 0.00 78 1011.5
20260505093002 57 39 3.5 8.7 0.00 0.00 0.00 80 1011.6
20260505092502 56 22 2.6 7.0 0.00 0.00 0.00 80 1011.6
20260505092002 56 15 2.6 7.0 0.00 0.00 0.00 81 1011.7
20260505091502 56 15 2.6 6.1 0.00 0.00 0.00 80 1011.8
20260505091003 56 3 2.6 5.2 0.00 0.00 0.00 80 1011.7
20260505090502 56 6 2.6 5.2 0.00 0.00 0.00 80 1011.7
20260505090025 56 359 2.6 5.2 0.00 0.00 0.00 80 1011.7
20260505085503 56 357 2.6 7.8 0.00 0.00 0.00 81 1011.8
20260505085002 56 6 1.7 7.8 0.00 0.00 0.00 81 1011.8
20260505084502 56 343 1.7 7.0 0.00 0.00 0.00 81 1011.8
20260505084004 56 338 2.6 9.6 0.00 0.00 0.00 80 1011.8
20260505083524 56 342 2.6 9.6 0.00 0.00 0.00 80 1011.8
20260505083003 56 343 1.7 5.2 0.00 0.00 0.00 80 1011.8
20260505082502 56 355 1.7 7.0 0.00 0.00 0.00 80 1011.8
20260505082003 56 13 1.7 7.0 0.00 0.00 0.00 80 1011.7
20260505081502 56 4 2.6 7.0 0.00 0.00 0.00 81 1011.7
20260505081023 56 355 2.6 7.0 0.00 0.00 0.00 82 1011.8
20260505080502 56 12 2.6 7.0 0.00 0.00 0.00 82 1011.9
20260505080002 55 24 2.6 7.0 0.00 0.00 0.00 82 1011.8
20260505075502 56 16 2.6 6.1 0.00 0.00 0.00 81 1011.8
20260505075002 56 16 1.7 5.2 0.00 0.00 0.00 82 1011.9
20260505074502 55 21 1.7 5.2 0.00 0.00 0.00 84 1011.8
20260505074002 55 16 1.7 6.1 0.00 0.00 0.00 85 1011.8
20260505073502 54 19 2.6 6.1 0.00 0.00 0.00 86 1011.7
20260505073002 54 359 1.7 7.0 0.00 0.00 0.00 87 1011.7
20260505072503 53 346 1.7 7.0 0.00 0.00 0.00 88 1011.6
20260505072002 53 349 1.7 7.0 0.00 0.00 0.00 89 1011.7
20260505071503 52 346 1.7 5.2 0.00 0.00 0.00 90 1011.8
20260505071002 52 356 1.7 5.2 0.00 0.00 0.00 90 1011.8
20260505070502 51 10 1.7 3.5 0.00 0.00 0.00 90 1011.8
20260505070002 51 6 0.9 3.5 0.00 0.00 0.00 91 1011.9
20260505065502 51 2 0.9 5.2 0.00 0.00 0.00 90 1011.9
20260505065023 50 2 0.9 5.2 0.00 0.00 0.00 91 1011.8
20260505064503 50 357 0.9 3.5 0.00 0.00 0.00 91 1011.8
20260505064002 50 358 0.9 3.5 0.00 0.00 0.00 91 1011.8
20260505063502 50 4 0.9 2.6 0.00 0.00 0.00 91 1012.0
20260505063023 50 7 0.9 3.5 0.00 0.00 0.00 91 1012.0
20260505062502 50 23 0.9 3.5 0.00 0.00 0.00 91 1011.9
20260505062023 50 24 0.9 2.6 0.00 0.00 0.00 91 1011.9
20260505061502 50 5 0.9 4.3 0.00 0.00 0.00 91 1011.8
20260505061002 50 353 0.9 4.3 0.00 0.00 0.00 91 1011.8
20260505060502 50 347 0.9 2.6 0.00 0.00 0.00 91 1011.8
20260505060002 50 17 0.9 4.3 0.00 0.00 0.00 91 1011.9
20260505055502 50 15 0.9 4.3 0.00 0.00 0.00 90 1011.9
20260505055002 50 1 0.0 2.6 0.00 0.00 0.00 91 1011.9
20260505054502 50 11 0.0 2.6 0.00 0.00 0.00 90 1011.9
20260505054002 50 34 0.9 4.3 0.00 0.00 0.00 91 1011.9
20260505053503 50 48 0.0 4.3 0.00 0.00 0.00 91 1011.9
20260505053003 50 31 0.0 2.6 0.00 0.00 0.00 90 1011.9
20260505052503 50 14 0.0 2.6 0.00 0.00 0.00 90 1011.8
20260505052003 50 10 0.0 2.6 0.00 0.00 0.00 90 1011.7
20260505051505 50 12 0.9 3.5 0.00 0.00 0.00 90 1011.7
20260505051004 50 11 0.9 3.5 0.00 0.00 0.00 90 1011.7
20260505050503 50 350 0.0 3.5 0.00 0.00 0.00 90 1011.7
20260505041502 51 2 0.9 2.6 0.00 0.00 0.00 90 1011.8
20260505041002 52 3 0.9 2.6 0.00 0.00 0.00 90 1011.8
20260505040523 52 356 0.0 2.6 0.00 0.00 0.00 90 1011.9
20260505040002 52 355 0.0 1.7 0.00 0.00 0.00 90 1011.9
20260505035502 52 357 0.0 1.7 0.00 0.00 0.00 90 1011.9
20260505035002 52 5 0.0 1.7 0.00 0.00 0.00 90 1011.9
20260505034502 52 334 0.0 1.7 0.00 0.00 0.00 90 1011.9
20260505034002 53 335 0.0 1.7 0.00 0.00 0.00 90 1011.9
20260505033502 53 343 0.0 1.7 0.00 0.00 0.00 90 1012.0
20260505033002 53 346 0.0 2.6 0.00 0.00 0.00 90 1011.9
20260505032502 53 351 0.0 2.6 0.00 0.00 0.00 90 1012.0
20260505032002 53 360 0.0 1.7 0.00 0.00 0.00 90 1012.0